Opa Locka, FL

7:14 AM EDT on August 28, 2016 (GMT -0400)
Opa Locka

Weather History for KOPF - May, 2013

Change the Weather History Date:

Sunday, May 5, 2013

  Actual Average Record
Temperature  
Mean Temperature 75 °F -  
Max Temperature 82 °F 84 °F 91 °F (1972)
Min Temperature 68 °F 69 °F 60 °F (1971)
Cooling Degree Days 10    
Growing Degree Days 25 (Base 50)    
Moisture  
Dew Point 62 °F    
Average Humidity 69    
Maximum Humidity 90    
Minimum Humidity 41    
Precipitation  
Precipitation 0.00 in - - ()
Sea Level Pressure  
Sea Level Pressure 29.87 in    
Wind  
Wind Speed 10 mph (NW)    
Max Wind Speed 14 mph    
Max Gust Speed 21 mph    
Visibility 10 miles    
Events      
Averages and records for this station are not official NWS values.
T = Trace of Precipitation, MM = Missing Value Source: NWS Daily Summary

Daily Weather History Graph

Daily Weather History Graph

Search for Another Location

Airport or City:

Trip Planner

Search our weather history database for the weather conditions in past years. The results will help you decide how hot, cold, wet, or windy it might be!

Date:

Astronomy

May. 05, 2013 Rise Set
Actual Time 6:41 AM EDT 7:54 PM EDT
Civil Twilight 6:16 AM EDT 8:19 PM EDT
Nautical Twilight 5:47 AM EDT 8:48 PM EDT
Astronomical Twilight 5:17 AM EDT 9:18 PM EDT
Moon 3:46 AM EDT (5/5) 4:14 PM EDT (5/5)
Length of Visible Light 14h 02m
Length of Day
13h 13m
Waning Crescent, 18% of the Moon is Illuminated
May 5
Waning Crescent
May 9
New
May 18
First Quarter
May 25
Full
May 31
Last Quarter

Hourly Weather History & Observations

Time (EDT) Temp. Heat Index Dew Point Humidity Pressure Visibility Wind Dir Wind Speed Gust Speed Precip Events Conditions
12:53 AM 71.1 °F - 64.9 °F 81% 29.83 in 10.0 mi WNW 10.4 mph - N/A   Clear
1:53 AM 70.0 °F - 64.9 °F 84% 29.81 in 10.0 mi WNW 11.5 mph - N/A   Clear
2:53 AM 69.1 °F - 64.9 °F 87% 29.80 in 10.0 mi West 9.2 mph - N/A   Clear
3:53 AM 69.1 °F - 64.9 °F 87% 29.79 in 10.0 mi West 9.2 mph - N/A   Clear
4:53 AM 68.0 °F - 64.9 °F 90% 29.80 in 10.0 mi WNW 8.1 mph - N/A   Partly Cloudy
5:26 AM 69.8 °F - 66.2 °F 88% 29.81 in 10.0 mi West 9.2 mph - N/A   Mostly Cloudy
5:53 AM 69.1 °F - 66.0 °F 90% 29.81 in 10.0 mi WNW 6.9 mph - N/A   Overcast
6:03 AM 69.8 °F - 66.2 °F 88% 29.81 in 10.0 mi WNW 6.9 mph - N/A   Overcast
6:53 AM 69.1 °F - 66.0 °F 90% 29.84 in 10.0 mi WNW 8.1 mph - N/A   Overcast
7:23 AM 69.8 °F - 66.2 °F 88% 29.85 in 10.0 mi WNW 10.4 mph - N/A   Overcast
7:51 AM 69.8 °F - 66.2 °F 88% 29.86 in 10.0 mi WNW 11.5 mph - N/A   Overcast
7:53 AM 70.0 °F - 66.0 °F 87% 29.86 in 10.0 mi WNW 12.7 mph - N/A   Overcast
8:11 AM 69.8 °F - 66.2 °F 88% 29.87 in 10.0 mi NW 10.4 mph - N/A   Mostly Cloudy
8:46 AM 71.6 °F - 64.4 °F 78% 29.88 in 10.0 mi NW 12.7 mph - N/A   Scattered Clouds
8:53 AM 72.0 °F - 64.9 °F 78% 29.88 in 10.0 mi NW 13.8 mph 20.7 mph N/A   Mostly Cloudy
9:44 AM 71.6 °F - 64.4 °F 78% 29.89 in 10.0 mi WNW 11.5 mph - N/A   Mostly Cloudy
9:53 AM 72.0 °F - 63.0 °F 73% 29.90 in 10.0 mi NW 13.8 mph - N/A   Mostly Cloudy
10:03 AM 75.2 °F - 64.4 °F 69% 29.89 in 10.0 mi NW 10.4 mph - N/A   Mostly Cloudy
10:53 AM 75.0 °F - 63.0 °F 66% 29.90 in 10.0 mi NW 12.7 mph - N/A   Mostly Cloudy
11:53 AM 77.0 °F - 62.1 °F 60% 29.91 in 10.0 mi NW 6.9 mph - N/A   Mostly Cloudy
12:47 PM 80.6 °F 81.5 °F 60.8 °F 51% 29.89 in 10.0 mi NW 9.2 mph - N/A   Mostly Cloudy
12:53 PM 79.0 °F - 61.0 °F 54% 29.89 in 10.0 mi WNW 12.7 mph - N/A   Mostly Cloudy
1:53 PM 80.6 °F 81.5 °F 60.8 °F 51% 29.88 in 10.0 mi WNW 10.4 mph - N/A   Partly Cloudy
2:53 PM 81.0 °F 81.6 °F 60.1 °F 49% 29.88 in 10.0 mi WNW 6.9 mph - N/A   Clear
3:53 PM 81.0 °F 81.3 °F 59.0 °F 47% 29.86 in 10.0 mi WNW 10.4 mph - N/A   Clear
4:53 PM 82.0 °F 81.6 °F 55.9 °F 41% 29.86 in 10.0 mi NNW 6.9 mph - N/A   Clear
5:53 PM 82.0 °F 81.7 °F 57.0 °F 42% 29.86 in 10.0 mi NW 8.1 mph - N/A   Clear
6:53 PM 81.0 °F 80.7 °F 55.0 °F 41% 29.88 in 10.0 mi NW 8.1 mph - N/A   Clear
7:53 PM 78.8 °F - 55.4 °F 44% 29.89 in 10.0 mi North 6.9 mph - N/A   Clear
8:53 PM 75.0 °F - 55.9 °F 51% 29.92 in 10.0 mi North 5.8 mph - N/A   Clear
9:53 PM 73.0 °F - 54.0 °F 51% 29.94 in 10.0 mi North 5.8 mph - N/A   Clear
10:53 PM 72.0 °F - 55.0 °F 55% 29.94 in 10.0 mi North 4.6 mph - N/A   Clear
11:53 PM 71.1 °F - 54.0 °F 55% 29.96 in 10.0 mi NNW 4.6 mph - N/A   Clear